GW7938 Weather Reports


time (UTC)temp
F
wind
direction
speed
knots
gust
knots
rain 1hr
in
rain 24hr
in
rain mn
in
humidity
%
barometer
mb
20260904212035 60 230 2.6 7.8 0.00 0.05 0.05 78 1018.7
20260904211033 60 237 2.6 7.0 0.00 0.05 0.05 77 1018.7
20260904210031 60 215 4.3 10.4 0.00 0.05 0.05 77 1018.8
20260904205029 60 228 3.5 9.6 0.00 0.05 0.05 76 1018.7
20260904204027 60 216 3.5 7.0 0.00 0.05 0.05 76 1018.6
20260904203026 60 220 3.5 7.8 0.00 0.05 0.05 76 1018.6
20260904202044 60 228 2.6 7.8 0.00 0.05 0.05 75 1018.5
20260904201022 60 222 2.6 6.1 0.00 0.05 0.05 75 1018.4
20260904200020 60 228 2.6 5.2 0.00 0.05 0.05 75 1018.4
20260904195019 60 245 0.9 3.5 0.00 0.05 0.05 75 1018.4
20260904194017 61 235 1.7 4.3 0.00 0.05 0.05 75 1018.4
20260904193058 61 240 1.7 4.3 0.00 0.05 0.05 74 1018.1
20260904192053 61 232 1.7 5.2 0.00 0.05 0.05 74 1018.0
20260904191031 62 244 1.7 4.3 0.00 0.05 0.05 73 1017.8
20260904190029 62 236 1.7 5.2 0.00 0.05 0.05 72 1017.5
20260904185027 62 230 1.7 5.2 0.00 0.05 0.05 71 1017.6
20260904184025 63 249 3.5 8.7 0.00 0.05 0.05 71 1017.5
20260904183044 63 243 2.6 6.1 0.00 0.05 0.05 70 1017.3
20260904182022 63 235 1.7 6.1 0.00 0.05 0.05 69 1017.3
20260904181020 64 247 3.5 7.0 0.00 0.05 0.05 68 1017.1
20260904180039 64 259 2.6 7.0 0.00 0.05 0.05 67 1017.1
20260904175016 64 249 4.3 9.6 0.00 0.05 0.05 65 1017.0
20260904174034 65 250 4.3 11.3 0.00 0.05 0.05 64 1016.9
20260904173033 65 249 3.5 10.4 0.00 0.05 0.05 66 1016.9
20260904172031 65 253 4.3 11.3 0.00 0.05 0.05 66 1016.8
20260904171049 65 242 2.6 12.2 0.00 0.05 0.05 66 1016.7
20260904170027 65 251 2.6 7.8 0.00 0.05 0.05 66 1016.4
20260904165025 65 258 3.5 8.7 0.00 0.05 0.05 65 1016.3
20260904164043 65 252 3.5 8.7 0.00 0.05 0.05 65 1016.2
20260904163021 66 244 3.5 8.7 0.00 0.05 0.05 65 1016.1
20260904162019 66 246 4.3 8.7 0.00 0.05 0.05 65 1016.1
20260904161018 66 246 2.6 7.0 0.00 0.05 0.05 66 1016.0
20260904160016 66 238 4.3 11.3 0.00 0.05 0.05 66 1016.0
20260904155034 66 236 4.3 9.6 0.00 0.05 0.05 66 1015.9
20260904154032 66 239 3.5 8.7 0.00 0.05 0.05 66 1016.0
20260904153030 66 241 2.6 7.8 0.00 0.05 0.05 65 1015.9
20260904152029 66 247 3.5 11.3 0.00 0.05 0.05 65 1016.0
20260904151027 67 233 3.5 8.7 0.00 0.05 0.05 64 1015.9
20260904150025 67 241 4.3 7.8 0.00 0.05 0.05 63 1015.9
20260904145023 67 242 4.3 10.4 0.00 0.05 0.05 63 1015.9
20260904144021 67 237 3.5 11.3 0.00 0.05 0.05 63 1015.7
20260904143019 67 238 4.3 10.4 0.00 0.05 0.05 62 1015.5
20260904142018 67 221 5.2 13.0 0.00 0.05 0.05 62 1015.5
20260904141035 67 231 4.3 9.6 0.00 0.05 0.05 62 1015.5
20260904140034 67 238 3.5 7.0 0.00 0.05 0.05 62 1015.5
20260904135113 68 243 3.5 7.0 0.00 0.05 0.05 62 1015.5
20260904134030 68 246 5.2 11.3 0.00 0.05 0.05 60 1015.2
20260904133029 68 252 4.3 8.7 0.00 0.05 0.05 63 1015.2
20260904132027 67 250 4.3 9.6 0.00 0.05 0.05 63 1015.1
20260904131025 67 253 3.5 10.4 0.00 0.05 0.05 64 1015.2
20260904130023 67 259 5.2 13.0 0.00 0.05 0.05 62 1015.1
20260904125021 67 246 5.2 13.0 0.00 0.05 0.05 63 1015.0
20260904124019 67 246 4.3 9.6 0.00 0.05 0.05 64 1015.0
20260904123017 67 252 4.3 12.2 0.00 0.05 0.05 64 1014.9
20260904122015 67 260 3.5 8.7 0.00 0.05 0.05 63 1014.7
20260904121034 67 249 2.6 6.1 0.00 0.05 0.05 64 1014.6
20260904120032 67 250 3.5 7.0 0.00 0.05 0.05 64 1014.5
20260904115030 67 253 4.3 8.7 0.00 0.05 0.05 66 1014.3
20260904114028 66 255 2.6 7.0 0.00 0.05 0.05 69 1014.1
20260904113026 66 250 2.6 5.2 0.00 0.05 0.05 73 1014.1
20260904112024 66 256 3.5 8.7 0.00 0.05 0.05 73 1014.3
20260904111022 66 256 2.6 7.0 0.00 0.05 0.05 74 1014.1
20260904110020 65 254 2.6 6.1 0.00 0.05 0.05 73 1013.9
20260904105019 65 280 1.7 5.2 0.00 0.05 0.05 75 1013.7
20260904104037 65 269 1.7 7.8 0.00 0.05 0.05 78 1013.7
20260904103016 64 252 3.5 7.8 0.00 0.05 0.05 84 1013.6
20260904102034 64 252 2.6 7.0 0.00 0.05 0.05 84 1013.5
20260904101032 64 227 1.7 4.3 0.00 0.05 0.05 86 1013.4
20260904100030 64 215 4.3 10.4 0.00 0.05 0.05 85 1013.3
20260904095028 64 237 3.5 9.6 0.00 0.05 0.05 86 1013.3
20260904094026 64 239 3.5 7.8 0.00 0.05 0.05 86 1013.3
20260904093024 64 232 2.6 6.1 0.00 0.05 0.05 87 1013.0
20260904092022 65 242 3.5 8.7 0.00 0.05 0.05 86 1012.9
20260904091020 64 240 3.5 6.1 0.00 0.05 0.05 88 1012.6
20260904090018 64 224 3.5 9.6 0.00 0.05 0.05 89 1012.5
20260904085017 65 245 1.7 5.2 0.01 0.05 0.05 88 1012.5
20260904084035 64 260 2.6 6.1 0.01 0.05 0.05 88 1012.4
20260904083033 63 253 4.3 13.0 0.01 0.05 0.05 89 1012.7
20260904082031 63 242 3.5 8.7 0.01 0.05 0.05 90 1012.5
20260904081029 63 245 3.5 8.7 0.01 0.04 0.04 91 1012.5
20260904080108 63 239 3.5 8.7 0.01 0.04 0.04 91 1012.1
20260904075026 63 241 3.5 7.8 0.00 0.04 0.04 92 1012.1
20260904074024 63 228 2.6 6.1 0.01 0.04 0.04 92 1011.8
20260904073022 63 248 3.5 8.7 0.01 0.04 0.04 92 1011.7
20260904072020 63 231 3.5 9.6 0.01 0.04 0.04 92 1011.4
20260904071038 63 226 3.5 7.8 0.01 0.04 0.04 94 1011.3
20260904070016 63 245 2.6 7.0 0.01 0.04 0.04 94 1011.5
20260904065034 63 240 3.5 9.6 0.01 0.04 0.04 94 1011.4
20260904064033 64 236 2.6 9.6 0.01 0.03 0.03 94 1011.2
20260904063031 64 232 3.5 9.6 0.01 0.03 0.03 94 1011.2
20260904062029 64 236 4.3 8.7 0.02 0.03 0.03 93 1010.8
20260904061027 65 249 3.5 7.0 0.02 0.03 0.03 93 1010.8
20260904060025 65 244 3.5 10.4 0.02 0.02 0.02 93 1010.7
20260904055023 66 253 2.6 6.1 0.02 0.02 0.02 93 1010.4
20260904054021 66 251 3.5 7.8 0.02 0.02 0.02 94 1010.2
20260904053020 67 234 5.2 14.8 0.02 0.02 0.02 95 1009.8
20260904052018 67 221 9.6 16.5 0.00 0.01 0.01 94 1009.3
20260904051016 67 215 7.0 14.8 0.00 0.01 0.01 94 1009.4
20260904050034 67 215 7.8 18.2 0.00 0.01 0.01 94 1009.5
20260904045053 67 214 9.6 18.2 0.00 0.01 0.01 94 1009.5
20260904044030 67 216 6.1 12.2 0.00 0.01 0.01 95 1009.5
20260904043029 67 221 6.1 13.9 0.00 0.01 0.01 95 1009.6
20260904042047 67 221 7.8 17.4 0.01 0.01 0.01 94 1009.5
20260904041025 67 209 9.6 17.4 0.01 0.01 0.01 94 1009.6
20260904040023 67 217 6.1 21.7 0.01 0.01 0.01 94 1009.6
20260904035021 67 194 5.2 13.0 0.00 0.00 0.00 94 1009.8
20260904034020 67 211 7.8 13.9 0.00 0.00 0.00 94 1009.7
20260904033017 67 196 7.8 20.9 0.00 0.00 0.00 93 1009.9
20260904032036 68 201 7.0 13.9 0.00 0.00 0.00 92 1010.1
20260904031034 68 205 7.8 18.2 0.00 0.00 0.00 91 1010.0
20260904030052 68 208 7.0 13.0 0.00 0.00 0.00 90 1010.1
20260904025030 69 211 8.7 18.2 0.00 0.00 0.00 88 1010.2
20260904024028 69 221 8.7 18.2 0.00 0.00 0.00 87 1010.2
20260904023026 69 203 7.8 14.8 0.00 0.00 0.00 88 1010.3
20260904022044 68 201 7.0 21.7 0.00 0.00 0.00 88 1010.4
20260904021023 68 206 7.8 14.8 0.00 0.00 0.00 88 1010.7
20260904020041 68 209 7.8 16.5 0.00 0.00 0.00 89 1010.9
20260904015019 68 205 6.1 14.8 0.00 0.00 0.00 89 1011.0
20260904014037 67 186 6.1 15.6 0.00 0.00 0.00 89 1011.0
20260904013015 67 185 7.0 14.8 0.00 0.00 0.00 89 1011.1
20260904012033 67 182 7.8 15.6 0.00 0.00 0.00 88 1011.2
20260904011032 67 191 6.1 14.8 0.00 0.00 0.00 89 1011.2
20260904010030 67 182 6.1 13.0 0.00 0.00 0.00 88 1011.5
20260904005028 67 191 6.1 13.0 0.00 0.00 0.00 87 1011.4
20260904004026 67 171 7.0 14.8 0.00 0.00 0.00 87 1011.6
20260904003024 67 180 7.8 13.9 0.00 0.00 0.00 86 1011.6
20260904002042 67 173 7.0 14.8 0.00 0.00 0.00 86 1011.8
20260904001021 67 170 4.3 9.6 0.00 0.00 0.00 86 1012.1
20260904000019 67 188 4.3 11.3 0.00 0.00 0.00 86 1012.1
20260903235017 67 186 5.2 8.7 0.00 0.00 0.00 85 1012.1
20260903234035 67 177 5.2 12.2 0.00 0.00 0.00 86 1012.3
20260903233033 67 192 5.2 12.2 0.00 0.00 0.00 86 1012.7
20260903232052 67 181 4.3 10.4 0.00 0.00 0.00 87 1013.0
20260903231029 66 178 6.1 12.2 0.00 0.00 0.00 87 1013.2
20260903230027 66 173 4.3 7.8 0.00 0.00 0.00 87 1013.2
20260903225026 66 173 5.2 10.4 0.00 0.00 0.00 88 1013.4
20260903224024 66 177 6.1 11.3 0.00 0.00 0.00 88 1013.4
20260903223042 66 175 3.5 8.7 0.00 0.00 0.00 89 1013.9
20260903222020 66 170 6.1 11.3 0.00 0.00 0.00 89 1013.9
20260903221019 66 174 7.0 13.9 0.00 0.00 0.00 90 1014.1
20260903220036 66 181 7.0 14.8 0.00 0.00 0.00 90 1014.2
20260903215055 65 189 6.1 13.9 0.00 0.00 0.00 91 1014.2
20260903214033 66 202 6.1 11.3 0.00 0.00 0.00 89 1014.2
20260903213031 66 196 5.2 13.0 0.00 0.00 0.00 87 1014.5